Location: Ferchesar
(52.6477°N, 12.4298°E)
Time: 12:50:20
(UTC+01:00)

Altair - Pass Details

Date: 08 December 2021
Orbit: 1501 x 1683 km, 47.2° (Epoch: 20 January)

Event Time Altitude Azimuth Distance (km) Brightness Sun altitude
Rises 18:47:21 0° 275° (W) 4,728 11.4 -24.6°
Reaches altitude 10° 18:50:30 10° 272° (W) 3,722 10.6 -25.1°
Maximum altitude 18:59:31 56° 198° (SSW) 1,762 7.8 -26.5°
Enters shadow 19:03:50 32° 137° (SE) 2,357 8.1 -27.1°
